GFSFLT2_700_rhum_003.txt.gz
RH
10 8 5 6 10 21 30 32 30 28 30 33 38 46 51 57 42 56 60 64 100 100 100 100 100 98 94
8 5 8 15 20 21 22 24 30 39 51 59 59 63 66 66 56 55 88 100 99 89 88 81 100 88 97
5 11 18 20 18 20 23 35 51 58 65 73 77 82 84 86 86 78 73 69 61 55 49 45 48 68 94
20 21 24 22 23 26 41 49 54 63 66 71 78 83 85 86 88 85 78 74 71 67 64 62 58 56 57
32 31 27 25 41 49 52 55 56 69 67 67 72 71 70 73 82 91 97 88 80 77 75 70 72 69 74
33 31 39 60 57 59 62 64 49 66 62 60 78 67 77 78 82 92 93 89 82 83 82 75 67 88 100
39 62 68 68 67 64 66 67 54 47 62 69 75 70 82 82 94 96 89 80 74 76 68 58 55 51 50
73 71 74 74 79 78 74 73 60 52 95 71 77 76 83 100 99 99 88 80 72 70 67 54 42 39 34
79 80 77 80 86 82 84 73 42 69 95 78 76 77 92 98 96 95 96 93 73 62 56 53 53 54 50
72 78 82 85 92 92 81 73 90 73 94 80 82 91 65 95 97 98 98 98 100 96 86 86 90 90 81
75 79 83 84 88 93 100 99 95 92 98 88 86 92 96 75 87 95 96 89 94 98 98 97 96 96 84
83 82 78 85 92 93 97 100 100 99 94 92 90 96 84 80 85 82 91 96 95 94 95 96 98 98 96
83 82 84 89 92 89 93 95 99 98 97 92 90 93 97 96 95 90 90 84 97 96 97 97 98 96 95
84 86 88 88 90 91 85 85 84 86 99 95 92 93 84 94 96 86 94 94 93 97 96 96 97 96 94
89 86 87 87 90 91 90 86 89 83 80 96 98 95 95 94 80 88 87 87 96 96 95 96 97 97 100
92 93 90 90 90 95 96 95 91 89 86 84 82 81 89 88 90 74 83 88 96 97 97 97 94 75 65
97 98 94 93 99 97 96 94 91 92 95 88 88 82 75 74 78 93 90 83 92 98 99 97 96 91 85

GFSFLT2_700_rhum_006.txt.gz
RH
11 12 10 6 6 12 23 23 16 17 28 43 48 47 46 48 52 51 53 48 42 62 92 89 83 86 83
10 8 5 7 14 24 24 20 21 36 43 50 50 49 52 58 61 62 62 64 62 69 100 96 95 93 93
5 4 8 14 23 25 21 28 46 46 52 60 55 57 57 64 70 70 70 73 74 70 66 64 60 58 77
9 12 17 26 29 27 42 47 49 55 59 55 49 49 55 67 67 67 69 70 70 75 74 72 66 63 62
24 22 26 30 42 56 52 51 49 62 57 37 39 55 66 70 71 72 74 70 70 76 76 74 71 69 68
26 33 41 62 62 59 63 55 43 61 59 29 69 61 75 75 83 75 74 76 76 75 74 71 69 70 72
40 64 71 71 73 64 64 67 63 60 52 47 71 67 80 97 84 81 87 88 88 87 80 75 71 68 63
78 77 80 82 84 78 73 67 65 68 90 60 69 70 84 92 92 98 100 99 97 96 94 86 70 62 51
78 82 82 85 87 80 78 82 71 70 95 69 69 69 80 96 92 92 97 100 98 99 100 97 92 88 73
75 84 86 84 90 96 95 91 90 70 96 72 72 81 56 78 88 87 79 92 96 98 99 100 99 94 87
78 82 83 87 91 100 100 99 92 87 94 89 73 83 86 64 60 75 78 79 90 96 97 96 98 100 98
82 84 83 86 92 98 97 98 96 96 88 92 79 83 80 74 70 62 66 80 94 95 96 92 96 99 97
80 85 84 85 89 88 89 89 89 96 97 90 89 84 86 86 80 69 73 74 97 96 95 96 96 98 94
83 85 84 84 89 95 87 90 89 88 99 97 91 90 89 96 93 83 80 86 93 98 95 98 96 95 93
89 86 86 86 90 98 95 90 92 87 80 85 95 97 99 98 92 87 77 89 96 96 90 89 97 95 86
93 94 93 93 93 94 97 94 90 90 89 86 81 76 78 80 92 82 80 94 96 96 98 91 94 93 92
95 99 96 94 98 96 96 94 89 91 94 91 90 89 74 64 69 95 88 88 90 96 96 99 96 96 96

GFSFLT2_700_rhum_009.txt.gz
RH
5 6 6 4 3 4 11 15 17 17 16 23 39 41 42 46 44 44 41 42 42 45 45 45 45 46 92
2 2 2 3 8 15 17 20 21 31 43 44 49 47 50 49 50 49 47 48 50 52 52 55 56 55 68
2 2 6 13 16 19 24 25 47 46 50 56 51 52 50 42 33 36 48 54 54 52 53 53 54 56 58
4 10 15 17 26 31 42 53 48 53 56 57 53 55 36 47 63 63 62 60 60 64 68 68 66 64 66
14 16 17 28 48 60 56 53 50 60 62 49 60 44 60 68 69 66 67 74 78 82 83 84 80 77 72
18 21 41 64 63 60 63 62 51 58 69 47 72 49 65 70 75 74 77 87 87 89 95 96 93 79 71
30 62 69 70 70 66 67 71 65 64 80 56 66 53 68 74 88 85 94 98 99 99 97 96 96 96 85
71 72 74 76 80 80 76 70 63 71 90 68 67 62 61 74 93 95 100 98 86 88 97 100 99 95 90
72 76 80 84 88 84 78 76 62 64 86 84 66 58 56 67 92 99 88 78 78 84 91 98 97 91 84
70 76 79 80 84 87 92 86 84 63 87 76 68 76 45 53 71 75 78 76 73 70 76 94 98 97 93
72 75 77 83 86 90 100 100 93 80 97 93 72 77 81 53 54 62 67 64 63 64 76 100 97 97 94
75 82 84 85 84 90 94 99 99 99 91 100 86 86 80 67 62 57 66 68 67 67 88 97 95 97 98
79 81 84 85 86 89 84 88 90 98 98 100 92 87 90 85 78 69 75 55 68 76 89 91 97 97 92
85 86 85 87 91 96 90 92 85 84 95 100 96 95 91 93 94 82 83 74 72 87 95 93 96 97 96
86 89 90 92 94 99 98 92 90 88 82 89 90 95 96 98 90 89 81 69 81 95 94 88 95 96 90
92 94 92 93 93 92 97 97 95 94 91 92 84 76 77 79 98 92 71 75 90 91 96 92 88 96 95
96 99 95 92 95 93 96 99 95 96 94 99 90 91 82 69 73 100 82 84 84 78 94 97 89 95 94

GFSFLT2_700_rhum_012.txt.gz
RH
4 4 3 3 3 4 6 10 11 12 16 20 41 41 38 41 46 40 41 39 38 41 42 40 41 43 71
4 4 4 4 6 10 13 13 16 30 43 47 48 49 51 49 43 43 39 35 28 26 32 41 44 47 49
4 5 6 8 13 15 17 29 47 49 50 58 54 52 52 49 47 37 30 33 46 50 55 58 58 57 56
5 7 10 15 21 36 45 49 47 50 54 61 52 57 55 55 48 48 52 53 56 66 68 71 72 74 72
8 10 16 30 58 57 51 50 50 56 53 53 55 53 58 61 64 66 63 61 71 72 74 79 80 83 85
14 19 38 63 64 63 58 60 52 61 57 49 66 59 62 63 65 70 63 72 78 82 83 82 82 82 86
23 50 61 66 68 68 65 64 60 64 71 55 65 56 61 62 72 80 74 86 92 90 91 89 82 83 88
56 64 69 72 77 75 70 69 62 66 75 78 59 51 54 58 66 81 87 96 93 93 90 75 76 74 76
68 72 76 76 79 77 77 73 65 60 73 94 65 53 44 47 61 72 90 99 96 91 80 79 74 71 73
68 71 74 75 80 85 82 76 77 59 86 87 73 83 40 44 53 66 70 76 79 78 79 74 71 71 79
67 72 73 77 80 88 94 96 92 82 98 100 84 87 87 53 50 63 68 70 73 70 72 71 74 88 91
69 68 67 74 81 90 93 99 100 97 89 96 97 96 87 74 62 58 68 73 70 64 63 62 71 99 98
68 74 81 85 89 90 94 95 91 98 98 100 100 98 94 84 74 66 68 61 65 63 61 62 86 93 86
78 86 88 88 90 92 88 89 83 82 93 99 98 99 90 88 88 84 86 67 58 60 63 79 83 97 98
90 91 90 89 90 93 92 88 87 86 84 92 95 94 94 99 92 90 84 68 65 67 79 78 79 96 93
95 95 91 89 88 89 96 96 89 88 91 96 90 78 75 79 97 93 83 70 65 74 82 82 81 92 97
96 96 93 92 96 94 93 92 88 90 93 98 91 94 81 64 78 99 92 78 76 78 82 83 86 86 99

GFSFLT2_700_rhum_015.txt.gz
RH
8 6 6 4 3 3 3 4 5 9 11 19 30 37 37 39 39 41 41 42 41 39 39 38 38 43 83
6 5 4 3 3 4 6 9 12 28 42 43 43 40 47 47 45 43 43 39 37 38 33 31 32 34 41
5 4 4 4 5 7 11 18 42 47 46 49 46 49 53 51 49 46 42 42 43 38 38 52 54 52 54
4 4 5 7 10 15 29 45 42 46 46 54 50 56 55 54 55 54 55 51 46 45 53 58 64 67 70
5 6 7 13 29 44 45 42 42 48 46 49 48 52 52 57 62 66 68 63 56 57 60 67 71 73 73
7 8 17 45 50 49 48 45 40 51 50 47 57 51 50 55 64 70 70 69 60 59 70 74 79 76 74
11 24 48 55 51 51 51 53 55 61 61 44 60 53 53 52 64 67 68 73 65 64 72 77 78 73 73
32 54 58 57 60 61 60 56 58 65 72 51 59 50 52 52 64 73 78 82 73 66 70 76 76 74 73
59 62 64 67 68 62 67 60 55 59 74 68 62 56 51 50 62 69 73 75 81 81 78 75 75 74 68
60 65 67 68 72 78 78 73 75 59 88 72 71 76 49 47 50 63 70 77 81 78 77 74 72 70 68
58 62 62 70 78 90 94 91 82 77 92 89 82 88 90 60 52 62 68 72 74 70 77 78 79 78 71
62 63 68 74 80 84 88 90 93 90 91 100 94 95 89 74 64 63 70 75 74 71 74 76 77 75 70
64 69 73 76 80 82 90 91 89 95 95 98 96 93 91 88 81 72 72 72 78 70 66 64 62 61 60
70 76 79 82 84 85 81 82 76 78 92 98 97 100 97 96 91 82 86 81 73 72 66 59 59 63 78
77 79 82 82 84 88 87 83 82 86 84 96 100 100 100 100 88 95 95 84 75 67 66 62 64 75 79
81 84 84 87 84 86 90 92 91 93 92 98 96 88 87 87 97 89 76 69 67 70 75 76 65 75 89
85 89 92 88 89 91 92 93 92 96 95 98 94 98 87 72 82 99 94 84 81 78 80 81 78 79 91

GFSFLT2_700_rhum_018.txt.gz
RH
15 11 9 7 6 4 3 3 3 4 5 7 11 22 28 33 34 34 35 37 38 38 37 37 38 40 48
11 8 6 5 3 3 3 4 5 7 12 29 37 37 37 38 38 39 40 39 39 39 38 38 38 36 37
8 5 3 3 3 4 4 5 12 32 41 40 42 42 43 43 44 44 43 41 41 37 36 36 38 38 36
4 3 3 4 4 4 7 25 35 40 41 39 44 42 43 46 50 47 46 49 45 43 44 44 45 47 48
3 3 4 5 5 14 33 34 32 40 40 39 45 45 52 54 54 54 57 56 56 51 51 50 51 52 54
4 5 6 6 23 38 34 32 27 40 36 36 44 39 49 48 50 56 58 61 67 60 61 59 58 60 64
6 7 8 32 41 35 39 38 34 43 50 41 53 44 51 54 58 61 66 69 71 59 58 60 58 58 68
7 12 36 44 41 42 41 40 43 55 73 52 57 52 56 60 67 66 69 76 81 72 66 56 57 58 67
18 47 50 50 55 46 51 53 50 54 76 73 61 57 55 53 60 66 70 74 76 74 69 64 59 56 63
52 55 57 58 57 62 68 66 68 52 77 68 62 72 45 48 52 64 68 74 76 73 69 65 61 59 51
50 54 58 59 67 80 88 82 76 75 92 87 68 80 83 63 59 70 75 79 77 69 75 76 68 65 54
52 58 62 70 77 84 86 86 86 90 89 94 89 91 88 77 70 71 80 84 79 74 75 74 76 74 69
59 68 69 71 76 79 83 86 82 95 98 97 98 96 93 88 85 75 79 73 85 78 75 70 66 68 68
66 67 68 74 80 86 82 83 79 79 91 99 95 94 90 91 90 80 92 87 86 87 77 67 67 67 65
68 68 74 79 85 91 90 88 86 82 78 90 99 99 97 98 92 96 98 87 83 80 77 68 70 74 76
74 77 78 83 84 90 93 90 86 85 86 92 89 82 80 82 97 91 83 77 79 79 84 79 64 75 93
77 80 81 83 88 88 87 85 83 87 92 98 90 93 86 73 80 98 93 93 89 80 80 80 75 74 93